Zurück zum Katalog

CZ-2C DEB

AktivSSO
NORAD 39627·DEBRIS·🇨🇳 China

Gestartet Mar 31, 2014 von Jiuquan Satellite Launch Center

Loading…

Nächste Überflüge (nächste 24 Stunden)

TLE

AktuellSource: Space-Track

Epoche: Sep 14, 2026, 13:37 UTC

1 39627U 14014D   26257.56739270  .00001255  00000-0  39145-3 0  9996
2 39627  98.1366  17.4510 0150876  36.5657 324.5717 14.36135499647831

Verfolge CZ-2C DEB in Echtzeit mit AllMySat

Download on the App Store